Weather History for KFME - December, 2011

Change the Weather History Date:

Friday, December 16, 2011

  Actual Average (KBWI) Record (KBWI)
Temperature  
Mean Temperature 47 °F 36 °F  
Max Temperature 55 °F 45 °F 71 °F (1971)
Min Temperature 37 °F 28 °F 10 °F (1951)
Degree Days  
Heating Degree Days 18 29  
Month to date heating degree days 423  
Since 1 July heating degree days 1327  
Cooling Degree Days 0 0  
Month to date cooling degree days 0  
Year to date cooling degree days 1164  
Moisture  
Dew Point 31 °F    
Average Humidity 58    
Maximum Humidity 87    
Minimum Humidity 38    
Precipitation  
Precipitation 0.00 in 0.11 in 1.99 in (1974)
Month to date precipitation 1.85  
Year to date precipitation 40.36  
Snow  
Snow 0.00 in 0.10 in 6.00 in (1973)
Month to date snowfall 1.3  
Since 1 July snowfall 1.7  
Snow Depth -    
Sea Level Pressure  
Sea Level Pressure 30.13 in    
Wind  
Wind Speed 8 mph (WNW)    
Max Wind Speed 20 mph    
Max Gust Speed 28 mph    
Visibility 10 miles    
Events      
T = Trace of Precipitation, MM = Missing Value Source: NWS Daily Summary

Daily Weather History Graph

Daily Weather History Graph

Search for Another Location

Airport or City:

Trip Planner

Search our weather history database for the weather conditions in past years. The results will help you decide how hot, cold, wet, or windy it might be!

Date:

Astronomy

Dec. 16, 2011 Rise Set
Actual Time 7:19 AM EST 4:45 PM EST
Civil Twilight 6:49 AM EST 5:15 PM EST
Nautical Twilight 6:15 AM EST 5:49 PM EST
Astronomical Twilight 5:43 AM EST 6:21 PM EST
Moon 11:13 PM EST (12/16) 11:06 AM EST (12/16)
Length of Visible Light 10h 26m
Length of Day
9h 26m
Waning Gibbous, 65% of the Moon is Illuminated
Dec 16
Waning Gibbous
Dec 17
Last Quarter
Dec 24
New
Jan 1
First Quarter
Jan 9
Full

Hourly Weather History & Observations

Time (EST) Temp. Windchill Dew Point Humidity Pressure Visibility Wind Dir Wind Speed Gust Speed Precip Events Conditions
12:45 AM 55.4 °F - 48.2 °F 77% 29.88 in 10.0 mi WSW 5.8 mph - N/A   Clear
1:03 AM 53.6 °F - 48.2 °F 82% 29.88 in 10.0 mi SW 8.1 mph - N/A   Clear
1:21 AM 53.6 °F - 48.2 °F 82% 29.88 in 10.0 mi SW 5.8 mph - N/A   Clear
1:42 AM 53.6 °F - 48.2 °F 82% 29.89 in 10.0 mi WSW 5.8 mph - N/A   Clear
2:00 AM 51.8 °F - 46.4 °F 82% 29.90 in 10.0 mi WSW 5.8 mph - N/A   Clear
2:21 AM 50.0 °F - 46.4 °F 87% 29.90 in 10.0 mi WSW 6.9 mph - N/A   Clear
2:39 AM 50.0 °F - 46.4 °F 87% 29.91 in 10.0 mi WSW 5.8 mph - N/A   Clear
3:00 AM 51.8 °F - 46.4 °F 82% 29.92 in 10.0 mi West 8.1 mph - N/A   Clear
3:18 AM 53.6 °F - 46.4 °F 77% 29.93 in 10.0 mi West 5.8 mph - N/A   Clear
3:39 AM 55.4 °F - 44.6 °F 67% 29.94 in 10.0 mi West 9.2 mph - N/A   Clear
3:57 AM 55.4 °F - 41.0 °F 58% 29.95 in 10.0 mi WNW 13.8 mph 21.9 mph N/A   Clear
4:15 AM 55.4 °F - 37.4 °F 51% 29.96 in 10.0 mi WNW 16.1 mph 24.2 mph N/A   Clear
4:36 AM 55.4 °F - 37.4 °F 51% 29.98 in 10.0 mi WNW 17.3 mph 21.9 mph N/A   Clear
4:54 AM 55.4 °F - 33.8 °F 44% 29.99 in 10.0 mi WNW 19.6 mph 27.6 mph N/A   Clear
5:15 AM 53.6 °F - 28.4 °F 38% 30.02 in 10.0 mi NNW 5.8 mph 21.9 mph N/A   Clear
5:33 AM 51.8 °F - 32.0 °F 47% 30.04 in 10.0 mi WNW 11.5 mph 23.0 mph N/A   Clear
5:54 AM 50.0 °F - 32.0 °F 50% 30.06 in 10.0 mi NW 11.5 mph 19.6 mph N/A   Clear
6:30 AM 46.4 °F 41.1 °F 30.2 °F 53% 30.12 in 10.0 mi NW 11.5 mph 17.3 mph N/A   Clear
6:51 AM 46.4 °F 41.1 °F 30.2 °F 53% 30.12 in 10.0 mi WNW 11.5 mph 20.7 mph N/A   Clear
7:09 AM 46.4 °F 42.4 °F 30.2 °F 53% 30.13 in 10.0 mi NW 8.1 mph 18.4 mph N/A   Clear
7:48 AM 44.6 °F 39.2 °F 28.4 °F 53% 30.16 in 10.0 mi NNW 10.4 mph 17.3 mph N/A   Clear
8:45 AM 44.6 °F 39.2 °F 28.4 °F 53% 30.20 in 10.0 mi WNW 10.4 mph 18.4 mph N/A   Clear
9:06 AM 44.6 °F 39.7 °F 28.4 °F 53% 30.21 in 10.0 mi NW 9.2 mph - N/A   Clear
9:24 AM 46.4 °F 44.3 °F 28.4 °F 50% 30.22 in 10.0 mi NNW 4.6 mph 18.4 mph N/A   Clear
10:03 AM 44.6 °F 40.7 °F 28.4 °F 53% 30.23 in 10.0 mi NNW 6.9 mph 18.4 mph N/A   Clear
10:24 AM 48.2 °F - 28.4 °F 46% 30.23 in 10.0 mi NW 10.4 mph 17.3 mph N/A   Clear
10:42 AM 46.4 °F 41.1 °F 28.4 °F 50% 30.24 in 10.0 mi WNW 11.5 mph 18.4 mph N/A   Clear
11:00 AM 44.6 °F 40.2 °F 26.6 °F 49% 30.25 in 10.0 mi NW 8.1 mph 19.6 mph N/A   Clear
11:21 AM 44.6 °F 38.4 °F 26.6 °F 49% 30.24 in 10.0 mi WNW 12.7 mph 17.3 mph N/A   Clear
11:39 AM 44.6 °F 40.2 °F 24.8 °F 46% 30.24 in 10.0 mi WNW 8.1 mph - N/A   Clear
12:00 PM 44.6 °F 40.2 °F 23.0 °F 43% 30.25 in 10.0 mi NW 8.1 mph 17.3 mph N/A   Clear
12:18 PM 44.6 °F 41.4 °F 24.8 °F 46% 30.24 in 10.0 mi NW 5.8 mph 17.3 mph N/A   Clear
12:39 PM 44.6 °F 42.2 °F 24.8 °F 46% 30.22 in 10.0 mi NW 4.6 mph - N/A   Clear
12:57 PM 44.6 °F 40.2 °F 26.6 °F 49% 30.22 in 10.0 mi NW 8.1 mph - N/A   Clear
1:15 PM 44.6 °F 38.4 °F 26.6 °F 49% 30.23 in 10.0 mi West 12.7 mph 16.1 mph N/A   Clear
1:36 PM 44.6 °F 41.4 °F 26.6 °F 49% 30.24 in 10.0 mi WNW 5.8 mph - N/A   Clear
1:54 PM 44.6 °F 39.2 °F 24.8 °F 46% 30.24 in 10.0 mi WNW 10.4 mph 16.1 mph N/A   Clear
2:33 PM 42.8 °F 37.5 °F 26.6 °F 53% 30.22 in 10.0 mi WNW 9.2 mph - N/A   Clear
2:54 PM 42.8 °F 37.5 °F 24.8 °F 49% 30.22 in 10.0 mi WNW 9.2 mph - N/A   Clear
3:12 PM 42.8 °F 38.0 °F 24.8 °F 49% 30.22 in 10.0 mi NW 8.1 mph - N/A   Clear
3:30 PM 42.8 °F 38.6 °F 24.8 °F 49% 30.21 in 10.0 mi WNW 6.9 mph - N/A   Clear
3:51 PM 42.8 °F 38.6 °F 24.8 °F 49% 30.20 in 10.0 mi NW 6.9 mph - N/A   Clear
4:09 PM 42.8 °F 39.3 °F 24.8 °F 49% 30.20 in 10.0 mi NW 5.8 mph - N/A   Clear
4:30 PM 41.0 °F 37.1 °F 26.6 °F 57% 30.20 in 10.0 mi WNW 5.8 mph - N/A   Clear
4:48 PM 41.0 °F 38.0 °F 26.6 °F 57% 30.21 in 10.0 mi NW 4.6 mph - N/A   Clear
5:09 PM 41.0 °F 37.1 °F 26.6 °F 57% 30.22 in 10.0 mi NW 5.8 mph - N/A   Clear
5:27 PM 41.0 °F 39.0 °F 26.6 °F 57% 30.21 in 10.0 mi WNW 3.5 mph - N/A   Clear
5:45 PM 41.0 °F - 26.6 °F 57% 30.21 in 10.0 mi Calm Calm - N/A   Clear
6:06 PM 41.0 °F 39.0 °F 26.6 °F 57% 30.21 in 10.0 mi WNW 3.5 mph - N/A   Scattered Clouds
6:24 PM 41.0 °F 39.0 °F 26.6 °F 57% 30.21 in 10.0 mi WNW 3.5 mph - N/A   Mostly Cloudy
6:45 PM 41.0 °F 39.0 °F 26.6 °F 57% 30.21 in 10.0 mi NW 3.5 mph - N/A   Overcast
7:03 PM 41.0 °F - 28.4 °F 61% 30.22 in 10.0 mi Calm Calm - N/A   Mostly Cloudy
7:24 PM 41.0 °F - 26.6 °F 57% 30.21 in 10.0 mi Calm Calm - N/A   Mostly Cloudy
8:00 PM 39.2 °F 37.0 °F 30.2 °F 70% 30.23 in 10.0 mi WSW 3.5 mph - N/A   Overcast
8:39 PM 39.2 °F 37.0 °F 30.2 °F 70% 30.22 in 10.0 mi West 3.5 mph - N/A   Overcast
9:18 PM 39.2 °F - 28.4 °F 65% 30.21 in 10.0 mi Calm Calm - N/A   Overcast
9:39 PM 39.2 °F - 30.2 °F 70% 30.21 in 10.0 mi Calm Calm - N/A   Overcast
10:15 PM 37.4 °F - 30.2 °F 75% 30.20 in 10.0 mi Calm Calm - N/A   Overcast
10:36 PM 37.4 °F 33.8 °F 32.0 °F 81% 30.21 in 10.0 mi West 4.6 mph - N/A   Overcast
10:54 PM 37.4 °F 34.9 °F 30.2 °F 75% 30.21 in 10.0 mi WNW 3.5 mph - N/A   Mostly Cloudy
11:15 PM 37.4 °F - 28.4 °F 70% 30.20 in 10.0 mi Calm Calm - N/A   Overcast
11:33 PM 37.4 °F 34.9 °F 28.4 °F 70% 30.21 in 10.0 mi WNW 3.5 mph - N/A   Overcast